Location: Oberkirch
(48.5323°N, 8.0787°E)
Time: 00:12:49
(UTC+00:00)

CUBEBUG 2 - Pass Details

Date: 14 March 2026
Orbit: 548 x 627 km, 97.9° (Epoch: 13 April)

Event Time Altitude Azimuth Distance (km) Brightness Sun altitude
Rises 01:48:23 0° 15° (NNE) 2,888 ? -36.1°
Reaches altitude 10° 01:50:34 10° 17° (NNE) 1,988 ? -35.9°
Enters shadow 01:51:30 16° 18° (NNE) 1,612 ? -35.8°
